"Pseudo-MPEC" for P10Pqwy

Created 2019 Jul 13 13:07:14 UT using Find_Orb

Click here for an explanation of pseudo-MPECs

 
 Astrometry: 
     P10Pqwy  C2019 07 03=]\Jq]e0Ap;;As_i;UHpA*M/*y,l_5cBr3n/R$PItkDG+3=ahe1cF51
     P10Pqwy  C2019 07 03I_r-8YTwn=t@+BO]Y`t%^vdq9K_X6#'Ouhg.B?W`mwE5'\5:Cd?'F51
     P10Pqwy  C2019 07 03`)SS.l1EoltkZSW[0qNbcixR]u#WV,0/ot:Astrometryrfh=!*pF51
     P10Pqwy |C2019 07 04X?'OmiE02CcosYLP63`y(btv4:dQoIH'h)06LUF8Sredacted;/a807
     P10Pqwy |C2019 07 04Li4YGX)$,%9!CDpFFx5)bKUKGK[/w$wS]xo;'M`@#]es*eKso4x$807
     P10Pqwy |C2019 07 04,ILW^5.bfaEdV;E]=+$@BCmL.sy#aw(m!.J_w2HcsmM)bLf%1jyS807
     P10Pqwy  C2019 07 043GZv@Yy[1[N2CRq@ds]7Ad@)6`/GQclickb!/5n)nnd%)l7MDcGbF52
     P10Pqwy  C2019 07 04\+yWosa,ZJ-12b)vwxYlFDK)6=05Xw=Qt2J5r*_oKBSG@+'fhereF52
     P10Pqwy  C2019 07 04Q%74;TE*4#\+@3for%,7:%By_k$[DLexplanation!O-AZ2Yo'gnF52
     P10Pqwy ^C2019 07 13.25150514 05 23.915+03 51 27.22   ~7D9M 22.44GVNEOCP568
     P10Pqwy ^C2019 07 13.25269014 05 23.927+03 51 26.73   ~7D9M 22.36GVNEOCP568
     P10Pqwy ^C2019 07 13.25390114 05 23.929+03 51 26.30   ~7D9M 22.37GVNEOCP568

Station data:
(568) Mauna Kea  (N19.826116 W155.472200)  US/Hawaii.
(807) Cerro Tololo Observatory, La Serena  (S30.169136 W70.805900)  Chile.
(F51) Pan-STARRS 1, Haleakala  (N20.707235 W156.255910)  US/Hawaii.
   Observers N. Primak, A. Schultz, S. Watters, J. Thiel, T. Goggia. Measurer
   PS1 Science Consortium. 1.8-m Ritchey-Chrétien + CCD.
(F52) Pan-STARRS 2, Haleakala  (N20.707384 W156.255910)  US/Hawaii. 1.8-m
   Ritchey-Chrétien + CCD.

Orbital elements:  P10Pqwy
   Perihelion 2020 Jul 10.184151 +/- 657 TT =  4:25:10 (JD 2459040.684151)
Epoch 2019 Jul 13.0 TT = JDT 2458677.5   Ju: 0.4414           AutoNEOCP
M 329.55934928 +/- 58               (J2000 ecliptic)
n   0.08381602 +/- 0.00448          Peri.  186.84528 +/- 60
a   5.17112084 +/- 0.184            Node    63.08197 +/- 0.31
e   0.0579354 +/- 0.0274            Incl.   34.04591 +/- 0.29
P  11.76                   H 15.0   G  0.15   U  9.2  
q 4.87152949 +/- 0.15    Q 5.47071219 +/- 0.285
From 12 observations 2019 July 3-13; mean residual 0".14
Residuals in arcseconds: 
190703 F51  .02+  .07-    190704 807  .03-  .12+    190704 F52  .33+  .04-    
190703 F51  .11-  .06+    190704 807  .00   .14+    190713 568  .07-  .02-    
190703 F51  .04+  .03-    190704 F52  .33-  .06-    190713 568  .05+  .02-    
190704 807  .32+  .04-    190704 F52  .23-  .08-    190713 568  .01+  .04+    

Ephemerides (geocentric):
Date (UTC) HH   RA              Dec         delta   r     elong  mag " sig PA
---- -- -- --  -------------   -----------  ------ ------ -----  --- ---- ---
2019 07 13 13  14 05 25.234   +03 49 28.72  4.6896 4.9175  97.0 22.5 .121  93
2019 07 13 14  14 05 25.424   +03 49 11.61  4.6902 4.9175  96.9 22.5 .135  93
2019 07 13 15  14 05 25.615   +03 48 54.50  4.6908 4.9175  96.9 22.5 .150  93
2019 07 13 16  14 05 25.807   +03 48 37.38  4.6914 4.9175  96.9 22.5 .164  94
2019 07 13 17  14 05 26.000   +03 48 20.26  4.6921 4.9175  96.8 22.5 .178  94
2019 07 13 18  14 05 26.195   +03 48 03.14  4.6927 4.9175  96.8 22.5 .193  94
2019 07 13 19  14 05 26.391   +03 47 46.01  4.6933 4.9174  96.7 22.5 .208  94
2019 07 13 20  14 05 26.588   +03 47 28.88  4.6939 4.9174  96.7 22.5 .223  94
2019 07 13 21  14 05 26.787   +03 47 11.74  4.6945 4.9174  96.7 22.5 .238  94
2019 07 13 22  14 05 26.987   +03 46 54.60  4.6951 4.9174  96.6 22.5 .253  94
2019 07 13 23  14 05 27.188   +03 46 37.46  4.6957 4.9174  96.6 22.5 .268  94
2019 07 14 00  14 05 27.390   +03 46 20.32  4.6963 4.9174  96.6 22.5 .283  94
2019 07 14 01  14 05 27.594   +03 46 03.16  4.6969 4.9174  96.5 22.5 .299  94
2019 07 14 02  14 05 27.799   +03 45 46.01  4.6975 4.9174  96.5 22.5 .314  94
2019 07 14 03  14 05 28.005   +03 45 28.85  4.6981 4.9174  96.5 22.5 .330  94
2019 07 14 04  14 05 28.212   +03 45 11.69  4.6987 4.9174  96.4 22.5 .346  94
2019 07 14 05  14 05 28.421   +03 44 54.53  4.6993 4.9173  96.4 22.5 .361  94
2019 07 14 06  14 05 28.631   +03 44 37.36  4.6999 4.9173  96.4 22.5 .377  94
2019 07 14 07  14 05 28.842   +03 44 20.18  4.7005 4.9173  96.3 22.5 .393  94
2019 07 14 08  14 05 29.055   +03 44 03.01  4.7011 4.9173  96.3 22.5 .409  94
2019 07 14 09  14 05 29.268   +03 43 45.83  4.7017 4.9173  96.2 22.5 .426  94
2019 07 14 10  14 05 29.483   +03 43 28.64  4.7023 4.9173  96.2 22.5 .442  94
2019 07 14 11  14 05 29.700   +03 43 11.45  4.7029 4.9173  96.2 22.5 .459  94
2019 07 14 12  14 05 29.917   +03 42 54.26  4.7035 4.9173  96.1 22.5 .475  94
2019 07 14 13  14 05 30.136   +03 42 37.07  4.7041 4.9173  96.1 22.5 .492  94
2019 07 14 14  14 05 30.356   +03 42 19.87  4.7047 4.9173  96.1 22.5 .509  94
2019 07 14 15  14 05 30.577   +03 42 02.67  4.7053 4.9172  96.0 22.5 .526  94
2019 07 14 16  14 05 30.800   +03 41 45.46  4.7059 4.9172  96.0 22.5 .543  94
2019 07 14 17  14 05 31.024   +03 41 28.25  4.7065 4.9172  96.0 22.5 .560  94
2019 07 14 18  14 05 31.249   +03 41 11.04  4.7071 4.9172  95.9 22.5 .577  94
2019 07 14 19  14 05 31.475   +03 40 53.82  4.7078 4.9172  95.9 22.5 .594  94
2019 07 14 20  14 05 31.703   +03 40 36.60  4.7084 4.9172  95.9 22.5 .612  94
2019 07 14 21  14 05 31.932   +03 40 19.37  4.7090 4.9172  95.8 22.5 .629  94
2019 07 14 22  14 05 32.162   +03 40 02.14  4.7096 4.9172  95.8 22.5 .647  94
2019 07 14 23  14 05 32.393   +03 39 44.91  4.7102 4.9172  95.8 22.5 .665  94
2019 07 15 00  14 05 32.626   +03 39 27.68  4.7108 4.9172  95.7 22.5 .683  94
2019 07 15 01  14 05 32.860   +03 39 10.44  4.7114 4.9171  95.7 22.5 .701  94
2019 07 15 02  14 05 33.095   +03 38 53.19  4.7120 4.9171  95.6 22.5 .719  94
2019 07 15 03  14 05 33.332   +03 38 35.95  4.7126 4.9171  95.6 22.5 .737  94
2019 07 15 04  14 05 33.569   +03 38 18.70  4.7132 4.9171  95.6 22.5 .755  94
2019 07 15 05  14 05 33.808   +03 38 01.44  4.7138 4.9171  95.5 22.5 .773  94
2019 07 15 06  14 05 34.049   +03 37 44.19  4.7144 4.9171  95.5 22.5 .792  94
2019 07 15 07  14 05 34.290   +03 37 26.93  4.7150 4.9171  95.5 22.5 .811  94
2019 07 15 08  14 05 34.533   +03 37 09.66  4.7156 4.9171  95.4 22.5 .829  94
2019 07 15 09  14 05 34.777   +03 36 52.39  4.7162 4.9171  95.4 22.5 .848  94
2019 07 15 10  14 05 35.022   +03 36 35.12  4.7168 4.9171  95.4 22.5 .867  94
2019 07 15 11  14 05 35.269   +03 36 17.85  4.7174 4.9170  95.3 22.5 .886  94
2019 07 15 12  14 05 35.516   +03 36 00.57  4.7180 4.9170  95.3 22.5 .905  94